Flag for France

Past Weather in Brest, Bretagne, France — Yesterday and Last 2 Weeks

Now
61 °F

Low clouds.


Feels Like: 61 °F
Forecast: 62 / 54 °F
Wind: 7 mph from Southwest

Location: Brest Airport
Current Time: Sep 22, 2020 at 7:35:40 am
Latest Report: Sep 22, 2020 at 6:30 am
Visibility: 4 mi
Pressure29.92 "Hg
Humidity: 94%
Dew Point: 59 °F
Location of BrestLocation

Past Weather in Brest — Graph

°F

Brest Temperature Yesterday

Maximum temperature yesterday: 66 °F (at 5:00 pm)
Minimum temperature yesterday: 59 °F (at 5:30 am)
Average temperature yesterday: 62 °F

High & Low Weather Summary for the Past Weeks

 TemperatureHumidityPressure
High90 °F (Sep 14, 4:00 pm)100% (Sep 7, 6:00 am)30.39 "Hg (Sep 7, 6:00 am)
Low43 °F (Sep 11, 6:30 am)31% (Sep 14, 4:00 pm)29.89 "Hg (Sep 18, 6:30 pm)
Average62 °F85%30.13 "Hg
* Reported Sep 7 6:00 am — Sep 22 6:00 am, Brest. Weather by CustomWeather, © 2020

Note: Actual official high and low records may vary slightly from our data, if they occured in-between our weather recording intervals... More about our weather records

Brest Weather History for the Previous 24 Hours

Scroll right to see more
 ConditionsComfort  
Time TempWeatherWind HumidityBarometerVisibility
6:00 am
Tue, Sep 22
61 °FLow clouds.9 mph94%29.95 "Hg4 mi
5:30 am61 °FLow clouds.10 mph94%29.95 "Hg5 mi
5:00 am61 °FLow clouds.10 mph94%29.95 "Hg5 mi
4:30 am61 °FLow clouds.9 mph94%29.95 "Hg4 mi
4:00 am61 °FLow clouds.8 mph94%29.95 "Hg4 mi
3:30 am61 °FMostly cloudy.7 mph94%29.98 "Hg4 mi
3:00 am61 °FFog.7 mph94%29.98 "Hg3 mi
2:30 am61 °FLow clouds.7 mph94%29.98 "Hg4 mi
2:00 am61 °FLow clouds.7 mph94%29.98 "Hg5 mi
1:30 am61 °FLow clouds.7 mph94%30.01 "Hg5 mi
1:00 am61 °FLow clouds.8 mph94%30.01 "HgN/A
12:30 am61 °FMostly cloudy.8 mph94%30.01 "Hg4 mi
12:00 am61 °FLow clouds.3 mph94%30.01 "Hg5 mi
11:30 pm
Mon, Sep 21
61 °FLow clouds.2 mph94%30.04 "Hg4 mi
11:00 pm61 °FLow clouds.5 mph94%30.01 "Hg4 mi
10:30 pm61 °FLow clouds.6 mph94%30.04 "Hg4 mi
10:00 pm61 °FLow clouds.5 mph94%30.04 "Hg6 mi
9:30 pm61 °FLow clouds.5 mph94%30.04 "Hg6 mi
8:30 pm63 °FMostly cloudy.7 mph88%30.01 "HgN/A
8:00 pm63 °FOvercast.6 mph88%30.01 "HgN/A
7:30 pm63 °FMostly cloudy.7 mph88%30.01 "HgN/A
7:00 pm64 °FLow clouds.8 mph88%30.01 "HgN/A
6:30 pm66 °FPartly sunny.6 mph83%30.01 "HgN/A
6:00 pm66 °FPartly sunny.6 mph88%30.01 "HgN/A
5:30 pm66 °FMostly cloudy.3 mph83%30.01 "HgN/A
5:00 pm66 °FMostly cloudy.2 mph88%30.01 "Hg6 mi
4:30 pm64 °FMostly cloudy.6 mph88%30.04 "Hg4 mi
4:00 pm64 °FLow clouds.3 mph94%30.04 "Hg4 mi
3:30 pm64 °FFog.5 mph88%30.04 "Hg3 mi
3:00 pm64 °FLow clouds.2 mph88%30.04 "Hg4 mi
2:30 pm64 °FLow clouds.5 mph88%30.04 "Hg4 mi
2:00 pm64 °FLow clouds.3 mph88%30.04 "Hg4 mi
1:30 pm64 °FLow clouds.2 mph88%30.04 "Hg4 mi
1:00 pm64 °FFog.No wind88%30.04 "Hg3 mi
12:30 pm63 °FFog.1 mph94%30.04 "Hg3 mi
12:00 pm63 °FFog.No wind94%30.04 "Hg1 mi
11:30 am63 °FFog.3 mph94%30.04 "Hg1 mi
11:00 am63 °FFog.3 mph94%30.04 "Hg1 mi
10:30 am63 °FLow clouds.2 mph94%30.04 "Hg1 mi
10:00 am61 °FLow clouds.No wind100%30.04 "Hg1 mi
9:30 am61 °FFog.1 mph100%30.04 "Hg1 mi
9:00 am61 °FLow clouds.1 mph94%30.04 "Hg1 mi
8:30 am61 °FFog.No wind94%30.04 "Hg1 mi
8:00 am59 °FDense fog.No wind100%30.01 "Hg1 mi
7:30 am59 °FFog.No wind100%30.01 "Hg1 mi
7:00 am59 °FFog.3 mph100%30.04 "Hg1 mi
Weather by CustomWeather, © 2020

See weather overview